EHI
0 0 0 0 0 0 0 0 0 0 0 0 0 0 1 1 1 0 0 0 0 0 0 0 0 0 0 0 0 0 0 0 0 0 0 0 0 0 0 0 0 0 0
0 0 0 0 0 0 0 0 0 0 0 0 0 0 0 0 0 0 0 0 0 0 0 0 0 0 0 0 0 0 0 0 0 0 0 0 0 0 0 0 0 0 0
0 0 0 0 0 0 0 0 0 0 0 0 0 0 0 0 0 0 0 0 0 0 0 0 0 0 0 0 0 0 0 0 0 0 0 0 0 0 0 0 0 0 0
1 1 1 0 0 0 0 0 0 0 0 0 0 0 0 0 0 0 0 0 0 0 0 0 0 0 0 0 0 0 0 0 0 0 0 0 0 0 0 0 0 0 0
1 2 1 0 1 1 0 0 0 0 0 0 0 0 0 0 0 0 0 0 0 0 0 0 0 0 0 0 0 0 0 0 0 0 0 0 0 0 0 0 0 0 0
2 2 2 1 2 2 1 0 0 0 0 0 0 0 0 0 0 0 0 0 0 0 0 0 0 0 0 0 0 0 0 0 0 0 0 0 0 0 0 0 0 0 0
2 2 2 1 2 3 2 1 0 0 0 0 0 0 0 0 0 0 0 0 0 0 0 0 0 0 0 0 0 0 0 0 0 0 0 0 0 0 0 0 0 0 0
2 1 1 1 2 3 2 1 0 0 0 0 0 0 0 0 0 0 0 0 0 0 0 0 0 0 0 0 0 0 0 0 0 0 0 0 0 0 0 0 0 0 0
1 1 1 2 2 2 1 1 1 0 0 0 0 0 0 0 0 0 0 0 0 0 0 0 0 0 0 0 0 0 0 0 0 0 0 0 0 0 0 0 0 0 0
0 0 1 1 2 2 1 1 0 0 0 0 0 0 0 0 0 0 0 0 0 0 0 0 0 0 0 0 0 0 0 0 0 0 0 0 0 0 0 0 0 0 0
1 1 1 2 3 4 2 0 0 0 0 0 0 0 0 0 0 0 0 0 0 0 0 0 0 0 0 0 0 0 0 0 0 0 0 0 0 0 0 0 0 0 0
2 2 3 4 6 6 3 2 1 0 0 0 1 0 0 0 0 0 0 0 0 0 0 0 0 0 0 0 1 0 0 0 0 0 0 0 0 0 0 0 0 0 0
3 3 3 4 5 5 4 4 3 1 0 0 0 0 0 0 0 0 0 0 0 0 0 0 0 0 0 1 2 1 0 0 0 0 0 0 0 0 0 0 0 0 0
4 3 2 3 3 2 3 3 3 1 0 0 0 0 0 0 0 0 0 0 0 0 0 0 1 1 1 2 2 0 0 0 0 0 0 0 0 0 0 0 0 0 0
4 2 2 2 1 2 3 3 2 2 1 0 0 1 1 0 0 0 0 0 0 0 0 1 2 2 2 2 1 0 0 0 0 0 0 0 0 0 0 0 0 0 0
3 2 2 2 1 2 2 2 2 2 1 0 1 1 0 0 0 0 0 0 0 0 0 2 4 3 1 1 0 0 0 0 0 0 0 0 0 0 0 0 0 0 0
1 1 1 1 0 1 1 1 1 1 0 0 0 0 0 0 0 1 0 0 0 0 0 2 3 2 0 0 0 0 0 0 0 0 0 0 0 0 0 0 0 0 0
1 1 1 1 1 1 1 0 0 0 0 0 0 0 0 0 0 0 0 0 0 0 0 1 1 0 0 0 0 0 0 0 0 0 0 0 0 0 0 0 0 0 0
1 1 2 2 2 2 2 1 0 0 0 0 0 0 0 0 0 0 0 0 0 0 0 0 0 0 0 0 0 0 0 0 0 0 0 0 0 0 0 0 0 0 0
2 2 3 3 3 3 3 2 1 0 1 1 1 0 0 0 0 0 0 0 0 0 0 0 0 0 0 0 0 0 0 0 0 0 0 0 0 0 0 0 0 0 0
4 3 2 3 3 3 3 2 2 2 3 3 2 1 0 0 0 0 0 0 0 0 0 0 0 0 0 0 0 0 0 0 0 0 0 0 0 0 0 0 0 0 0
7 6 5 4 3 2 1 1 2 4 5 5 3 2 1 0 0 0 0 0 0 0 0 1 1 0 0 0 0 0 0 0 0 0 0 0 0 0 0 0 0 0 0
13 12 10 7 4 2 0 0 1 3 4 4 3 3 1 1 0 0 0 0 0 0 0 1 1 0 0 0 0 0 0 0 0 0 0 0 0 0 0 0 0 0 0
16 15 13 11 7 3 0 0 0 1 3 4 3 3 3 2 1 0 0 0 0 0 0 1 1 0 0 0 0 0 0 0 0 0 0 0 0 0 0 0 0 0 0
14 13 11 10 8 4 1 0 0 2 4 4 4 3 3 2 1 0 0 0 0 0 0 0 0 0 0 0 0 0 0 0 0 0 0 0 0 0 0 0 0 0 0
10 10 9 8 6 4 2 1 1 4 5 5 4 3 2 1 0 0 0 0 0 0 0 0 0 0 0 0 0 0 0 0 0 0 0 0 0 0 0 0 0 0 0
Wind_Speed
4 4 3 3 4 4 5 4 3 4 4 4 3 4 4 3 3 4 7 9 8 7 7 8 8 8 8 7 7 8 8 8 7 7 7 7 7 6 6 5 5 5 5
4 4 5 4 3 3 3 3 4 4 4 3 3 3 4 5 4 4 6 9 9 7 7 8 9 9 9 8 8 7 8 8 7 7 7 7 7 6 6 6 6 5 5
5 4 3 4 4 3 4 3 4 3 4 4 4 4 3 3 4 4 4 5 8 9 8 7 8 9 9 9 8 8 7 7 7 7 7 7 7 7 7 7 7 6 6
5 4 4 4 4 4 4 4 4 3 3 3 3 3 3 3 4 5 5 4 4 7 10 9 8 8 9 9 9 9 8 7 8 8 8 8 8 8 7 8 8 7 7
7 5 4 3 5 4 4 4 4 3 4 3 4 4 3 3 4 5 4 5 4 4 6 10 10 8 9 10 10 10 10 9 9 9 10 10 10 9 9 9 8 8 8
7 5 5 5 5 4 3 2 2 2 2 3 3 3 3 4 4 4 5 5 5 6 6 6 8 9 11 9 9 10 10 10 10 11 11 11 11 10 10 10 10 10 10
7 6 5 5 4 4 4 5 4 5 4 3 2 3 4 5 4 4 5 4 5 6 5 5 5 4 7 12 10 9 10 11 11 11 11 12 12 11 10 11 11 11 11
7 7 6 5 5 3 4 4 4 3 4 4 3 3 4 5 5 5 5 5 5 5 6 7 5 5 5 5 8 11 10 11 11 11 11 12 11 11 11 11 11 11 12
7 6 7 6 5 6 5 6 6 6 4 4 3 3 3 2 4 5 4 4 4 4 5 4 6 6 6 5 5 11 11 9 10 11 11 12 12 12 12 12 12 12 13
7 7 7 6 6 5 4 7 6 5 5 4 4 3 3 3 2 3 5 5 5 5 4 4 4 5 5 5 4 4 8 8 9 10 10 11 11 11 12 12 12 12 12
7 7 7 6 6 5 5 5 4 5 5 5 4 4 3 2 4 2 2 4 5 4 4 4 3 3 4 4 3 3 6 6 7 8 9 9 10 11 11 12 12 13 12
6 8 7 6 7 5 5 6 5 6 4 3 3 3 4 4 4 2 2 4 4 4 3 2 2 2 2 2 1 5 3 2 4 5 6 7 7 8 9 10 11 12 12
7 8 8 7 6 5 5 5 5 4 5 4 5 4 3 3 2 3 3 2 2 3 3 3 2 1 1 1 2 4 3 1 1 2 3 3 4 5 6 6 7 8 10
7 8 8 7 7 7 6 5 5 5 4 5 5 3 3 2 2 3 3 3 3 3 3 2 2 1 1 1 4 1 3 4 2 1 1 1 2 2 3 4 4 5 6
6 8 8 8 7 7 6 6 4 4 4 5 5 5 4 2 3 3 3 4 4 4 3 3 2 3 1 3 3 1 2 7 5 4 3 2 2 2 2 3 3 4 4
7 8 8 8 8 7 7 6 5 5 5 3 2 1 2 2 1 2 2 3 4 4 2 1 2 3 4 2 4 2 3 8 8 6 6 5 4 4 4 3 4 4 4
8 9 8 8 8 8 7 6 5 5 5 4 4 4 2 1 1 1 1 2 2 3 2 0 2 4 4 4 4 3 2 1 6 8 8 7 6 6 5 6 6 6 6
8 8 8 8 8 7 7 7 6 6 6 5 4 4 3 2 1 1 1 1 1 2 2 0 1 2 3 3 3 3 3 3 3 9 7 6 6 5 5 5 6 6 6
7 7 7 7 7 7 7 6 5 5 4 4 3 3 3 3 2 2 2 2 1 1 1 0 1 2 2 3 2 2 3 3 2 5 5 4 4 4 4 4 5 5 6
7 7 7 6 6 6 6 6 6 6 6 6 5 5 5 5 4 4 3 3 2 2 2 1 1 2 2 3 3 3 2 3 4 4 4 3 1 2 2 3 5 7 7
7 7 6 6 5 5 5 7 8 8 8 8 8 8 9 11 12 8 5 4 3 2 2 2 2 3 4 4 4 4 4 3 2 4 5 5 3 3 1 3 5 9 8
7 7 7 7 6 5 9 10 9 9 9 9 9 9 10 11 14 16 17 16 12 6 4 3 3 4 5 5 5 5 5 5 4 4 6 6 4 4 4 3 6 6 6
8 8 8 8 8 9 13 13 12 9 9 8 8 7 7 9 9 10 12 13 14 14 11 6 6 6 5 6 6 6 5 6 6 6 6 7 5 5 6 3 4 2 3
8 8 8 9 9 10 13 14 14 11 10 9 8 8 8 8 7 7 8 9 9 9 9 8 7 7 7 6 6 5 5 5 5 2 4 7 7 7 7 6 2 3 3
9 8 9 10 11 11 11 13 12 10 10 10 9 9 9 9 7 5 8 8 8 7 10 11 9 6 6 6 7 6 6 7 6 5 5 7 8 9 8 7 2 5 7
10 9 10 9 10 10 10 10 10 8 9 9 8 9 10 9 8 5 6 7 7 6 5 5 4 3 2 3 2 6 7 7 7 6 6 8 9 9 8 6 7 8 8
Wind_Direction
170 156 156 166 180 152 163 172 157 149 157 162 170 156 161 141 135 149 132 156 170 173 176 175 174 170 167 170 172 173 173 174 171 172 176 175 173 176 178 177 177 181 180
165 172 172 175 175 176 165 167 155 167 177 156 166 148 166 157 152 168 148 156 170 179 187 185 180 177 178 183 185 183 185 184 182 185 187 185 184 187 193 192 193 196 197
168 185 181 184 176 166 158 183 168 177 175 168 159 162 168 172 157 175 170 164 166 177 190 192 188 189 190 192 192 194 196 195 193 195 197 196 197 200 205 207 208 208 208
183 194 192 189 174 183 183 173 194 182 175 180 165 180 166 162 166 180 183 181 172 172 179 189 195 197 199 199 197 199 202 205 203 205 207 208 210 211 214 216 217 217 215
190 200 200 170 192 195 194 200 176 203 181 181 172 177 186 168 170 187 182 181 180 192 174 170 191 202 208 209 206 206 206 208 211 215 216 217 218 218 218 219 222 223 221
194 200 195 183 203 194 196 205 171 210 206 194 200 158 188 178 185 183 198 180 182 199 201 179 185 195 206 215 215 215 213 211 215 220 223 224 226 223 220 222 224 227 228
192 202 209 176 207 199 203 199 194 187 201 183 191 183 190 194 183 187 208 195 188 200 198 191 211 198 187 201 210 217 217 216 218 221 225 227 228 227 224 227 228 230 232
197 196 208 202 196 196 201 209 209 216 190 184 215 205 192 181 195 196 191 200 202 197 197 197 200 204 233 197 181 200 213 221 224 224 225 226 228 229 227 229 231 233 235
202 207 201 215 198 211 193 205 206 213 207 192 218 243 238 198 166 170 195 192 193 202 212 196 203 197 216 224 193 188 202 216 227 231 229 226 227 228 228 230 232 235 237
201 203 206 207 210 216 191 208 202 213 214 206 189 243 297 353 254 168 184 179 183 198 211 216 201 195 212 224 201 179 191 214 231 239 240 236 232 230 230 232 236 238 239
201 205 204 202 204 213 206 220 190 223 213 221 206 197 196 205 248 239 174 174 174 180 185 202 208 205 203 226 223 165 174 212 233 243 246 246 239 234 232 232 237 241 242
195 199 202 201 207 207 199 209 207 206 231 232 247 221 212 213 228 229 204 201 179 161 166 182 210 197 209 221 150 96 131 204 236 244 249 251 250 247 240 237 239 242 244
193 194 198 199 205 200 204 206 205 213 205 205 226 233 236 244 256 262 265 238 201 168 167 195 181 196 196 166 95 102 105 120 237 259 261 262 263 264 258 254 254 255 255
197 186 193 193 195 197 202 197 204 200 200 207 214 232 246 249 259 260 273 272 243 214 187 176 124 82 38 51 63 201 94 89 74 29 325 298 291 292 287 281 277 274 273
195 187 190 189 190 191 196 197 205 200 195 206 197 194 231 220 244 256 267 276 281 267 204 152 162 78 34 60 36 53 65 75 64 46 27 9 352 336 321 316 314 309 303
192 185 189 188 188 186 186 198 192 189 191 195 211 186 237 235 241 257 267 271 283 291 298 80 91 53 24 22 64 33 76 103 73 57 51 47 41 32 19 11 359 344 335
186 187 190 186 187 186 185 190 197 179 190 180 183 178 190 292 257 259 272 286 297 299 277 131 95 76 45 17 28 5 14 4 87 71 60 52 45 41 37 35 30 21 14
184 184 185 184 187 183 181 185 191 181 183 177 176 167 169 160 152 326 344 347 359 344 300 314 67 78 59 33 30 354 11 14 53 88 76 58 47 43 41 37 31 22 14
177 178 181 183 183 179 178 181 176 168 158 146 138 134 127 120 113 80 43 39 27 33 356 302 74 45 43 26 2 14 34 2 345 115 111 93 66 51 44 47 38 24 13
167 170 172 172 171 170 165 157 146 131 117 103 95 92 87 85 84 82 74 57 47 53 65 53 74 76 50 31 358 350 356 8 347 356 13 350 126 179 150 93 56 35 20
151 149 146 144 144 149 147 139 133 125 117 108 97 89 80 74 63 56 55 50 49 46 69 71 69 60 42 19 7 351 351 336 353 5 339 328 327 323 267 149 84 39 17
135 133 130 127 120 114 104 111 122 121 119 115 108 101 96 87 81 73 66 57 48 46 46 45 62 59 45 25 6 348 349 336 336 16 331 320 326 324 324 340 63 38 11
132 126 121 117 113 108 107 109 111 118 114 112 111 110 103 96 97 96 88 81 67 55 45 43 62 47 43 27 358 351 0 339 330 334 325 315 325 322 319 358 97 40 346
130 124 122 119 115 109 109 109 108 108 104 101 99 100 101 99 91 97 98 87 77 62 51 53 58 47 41 17 350 333 323 302 282 308 341 312 326 323 320 312 176 175 260
121 117 117 117 116 112 109 112 112 110 105 100 96 93 99 98 76 89 103 98 93 95 88 83 78 81 72 41 358 335 340 324 327 339 3 326 324 323 311 301 277 200 247
118 115 110 109 114 115 107 111 119 120 117 113 106 96 83 87 71 56 96 97 91 78 74 99 110 134 92 80 20 356 346 335 331 330 11 334 323 326 313 316 327 317 302